Regional Weather Roundup
Issued by NWS

Home | Current Version | Previous Version | Graphics & Text | Print | Product List | Glossary On
Versions: 1 2 3 4 5 6 7 8 9 10 11 12 13 14 15 16 17 18 19 20 21 22 23 24 25 26 27 28 29 30 31 32 33 34 35 36 37 38 39 40 41 42 43 44 45 46 47 48 49 50
000
ASUS45 KCYS 220610
RWRWY

WYOMING REGIONAL WEATHER ROUNDUP
NATIONAL WEATHER SERVICE CHEYENNE WY
1200 AM MDT TUE JUL 22 2014

NOTE:  "FAIR" INDICATES FEW OR NO CLOUDS BELOW 12,000 FEET
WITH NO SIGNIFICANT WEATHER AND/OR OBSTRUCTIONS TO VISIBILITY.

WYZ001-220700-
YELLOWSTONE NATIONAL PARK

CITY           SKY/WX    TMP DP  RH WIND       PRES   REMARKS
LK YELLOWSTONE   N/A     48  47  96 CALM      30.42F
6HR MIN TEMP:  48; 6HR MAX TEMP:  60; 6HR PCP:  0.07;

W YELLOWSTONE  NOT AVBL

$$
WYZ002>013-054>058-071-098>099-220700-
NORTHERN WYOMING

CITY           SKY/WX    TMP DP  RH WIND       PRES   REMARKS
JACKSON        MOCLDY    54  46  76 SW7       30.32R
CODY           MOCLDY    72  43  35 W6        30.20R
GREYBULL       PTCLDY    73  46  38 NE5       30.10S
6HR MIN TEMP:  73; 6HR MAX TEMP:  94; 6HR PCP: TRACE;

WORLAND        CLEAR     67  48  50 SE3       30.15R
6HR MIN TEMP:  65; 6HR MAX TEMP:  88;

SHERIDAN       MOCLDY    63  56  78 W10       30.13R
6HR MIN TEMP:  63; 6HR MAX TEMP:  85; 6HR PCP:  0.43;

BUFFALO        PTCLDY    61  49  64 NW6       30.20R
6HR MIN TEMP:  61; 6HR MAX TEMP:  78; 6HR PCP: TRACE;

GILLETTE       CLEAR     60  56  86 S3        30.15S
6HR MIN TEMP:  60; 6HR MAX TEMP:  86; 6HR PCP:  0.05;

HULETT         FAIR      61  57  88 MISG      30.16
NEWCASTLE      FAIR      70  50  49 MISG      30.13

$$
WYZ014>020-022>026-101>103-220700-
CENTRAL WYOMING

CITY           SKY/WX    TMP DP  RH WIND       PRES   REMARKS
BIG PINEY      PTCLDY    58  40  51 NE13      30.36S
6HR MIN TEMP:  58; 6HR MAX TEMP:  82;

PINEDALE       PTCLDY    57  41  54 W6        30.35F
DUBOIS         FAIR      52  41  66 CALM      30.37S
LANDER         PTCLDY    62  41  46 S8        30.23R
6HR MIN TEMP:  59; 6HR MAX TEMP:  90;

RIVERTON       PTCLDY    66  38  35 VRB3      30.25R
6HR MIN TEMP:  65; 6HR MAX TEMP:  88; 6HR PCP: TRACE;

CASPER         PTCLDY    64  50  60 N13       30.24R
6HR MIN TEMP:  60; 6HR MAX TEMP:  92;

DOUGLAS        CLEAR     72  48  42 VRB3      30.20R
6HR MIN TEMP:  70; 6HR MAX TEMP:  94;


$$
WYZ021-027>030-104>119-220700-
SOUTHERN WYOMING

CITY           SKY/WX    TMP DP  RH WIND       PRES   REMARKS
EVANSTON       CLEAR     63  35  35 N8        30.34R
6HR MIN TEMP:  62; 6HR MAX TEMP:  82;

KEMMERER       CLEAR     59  36  41 N10       30.35R
FORT BRIDGER   FAIR      73  24  16 SW12      30.34S
ROCK SPRINGS   PTCLDY    71  33  24 NE5       30.30S
6HR MIN TEMP:  68; 6HR MAX TEMP:  86;

DIXON          FAIR      58  37  45 SE3       30.30S
RAWLINS        CLEAR     61  31  32 NE7       30.30R
6HR MIN TEMP:  61; 6HR MAX TEMP:  85; 6HR PCP: TRACE;

SARATOGA       FAIR      61  32  33 S7        30.32S
LARAMIE        CLEAR     57  36  45 SE9       30.34R
6HR MIN TEMP:  56; 6HR MAX TEMP:  84;

CHEYENNE       CLEAR     68  40  35 W5        30.25R
6HR MIN TEMP:  65; 6HR MAX TEMP:  85;

TORRINGTON     PTCLDY    69  54  58 CALM      30.09R
6HR MIN TEMP:  67; 6HR MAX TEMP:  91;

PINE BLUFFS    FAIR      64  46  52 CALM      30.17S

$$



USA.gov is the U.S. government's official web portal to all federal, state and local government web resources and services.